2020-05-17 00:07:29 r, 18.12m,0000000006Hz,0000092015c,0000000.200s, 028.3C,00002195
2020-05-17 00:17:29 r, 17.89m,0000000006Hz,0000074667c,0000000.162s, 028.3C,00002195
2020-05-17 00:27:31 r, 17.54m,0000000008Hz,0000053872c,0000000.117s, 028.3C,00002195
2020-05-17 00:37:29 r, 18.05m,0000000005Hz,0000086374c,0000000.187s, 028.0C,00002195
2020-05-17 00:47:29 r, 18.04m,0000000006Hz,0000085096c,0000000.185s, 028.0C,00002195
2020-05-17 00:57:30 r, 17.83m,0000000006Hz,0000070790c,0000000.154s, 028.0C,00002195
2020-05-17 01:07:29 r, 18.08m,0000000005Hz,0000088276c,0000000.192s, 028.0C,00002195
2020-05-17 01:17:31 r, 17.25m,0000000011Hz,0000041609c,0000000.090s, 028.0C,00002195
2020-05-17 01:27:30 r, 17.99m,0000000006Hz,0000080958c,0000000.176s, 027.7C,00002195
2020-05-17 01:37:29 r, 17.52m,0000000009Hz,0000053012c,0000000.115s, 027.7C,00002195
2020-05-17 01:47:29 r, 18.04m,0000000005Hz,0000085411c,0000000.185s, 027.7C,00002195
2020-05-17 01:57:29 r, 18.04m,0000000005Hz,0000085402c,0000000.185s, 027.7C,00002195
2020-05-17 02:07:29 r, 18.12m,0000000005Hz,0000092156c,0000000.200s, 027.3C,00002195
2020-05-17 02:17:29 r, 18.16m,0000000004Hz,0000094955c,0000000.206s, 027.3C,00002195
2020-05-17 02:27:29 r, 18.16m,0000000005Hz,0000095081c,0000000.206s, 027.0C,00002195
2020-05-17 02:37:29 r, 18.16m,0000000004Hz,0000094960c,0000000.206s, 027.0C,00002195
2020-05-17 02:47:30 r, 18.17m,0000000005Hz,0000095983c,0000000.208s, 027.0C,00002195
2020-05-17 02:57:29 r, 18.17m,0000000005Hz,0000096106c,0000000.209s, 026.7C,00002195
2020-05-17 03:07:29 r, 18.18m,0000000004Hz,0000097240c,0000000.211s, 026.7C,00002195
2020-05-17 03:17:31 r, 18.18m,0000000005Hz,0000096905c,0000000.210s, 026.4C,00002195
2020-05-17 03:27:30 r, 18.17m,0000000005Hz,0000096686c,0000000.210s, 026.1C,00002195
2020-05-17 03:37:29 r, 18.16m,0000000005Hz,0000095248c,0000000.207s, 026.1C,00002195
2020-05-17 03:47:29 r, 18.13m,0000000005Hz,0000092687c,0000000.201s, 025.7C,00002195
2020-05-17 03:57:29 r, 18.07m,0000000005Hz,0000088323c,0000000.192s, 025.7C,00002195
2020-05-17 04:07:29 r, 17.99m,0000000005Hz,0000081829c,0000000.178s, 025.4C,00002195
2020-05-17 04:17:29 r, 17.79m,0000000007Hz,0000067898c,0000000.147s, 025.4C,00002195
2020-05-17 04:27:29 r, 17.41m,0000000010Hz,0000047924c,0000000.104s, 025.1C,00002195
2020-05-17 04:37:29 r, 16.70m,0000000019Hz,0000025027c,0000000.054s, 025.1C,00002195
2020-05-17 04:47:29 r, 15.53m,0000000054Hz,0000008473c,0000000.018s, 025.1C,00002195
2020-05-17 04:57:31 r, 13.96m,0000000231Hz,0000000000c,0000000.000s, 024.8C,00002195
2020-05-17 05:07:29 r, 12.33m,0000001042Hz,0000000000c,0000000.000s, 024.8C,00002195
2020-05-17 05:17:30 r, 10.76m,0000004439Hz,0000000000c,0000000.000s, 024.8C,00002195
2020-05-17 05:27:29 r, 09.33m,0000016615Hz,0000000000c,0000000.000s, 024.4C,00002195
2020-05-17 05:37:29 r, 08.21m,0000046185Hz,0000000000c,0000000.000s, 024.4C,00002195
2020-05-17 05:47:29 r, 07.39m,0000098838Hz,0000000000c,0000000.000s, 024.4C,00002195
2020-05-17 05:57:30 r, 06.81m,0000168896Hz,0000000000c,0000000.000s, 024.4C,00002195
2020-05-17 06:07:29 r, 06.28m,0000276211Hz,0000000000c,0000000.000s, 024.4C,00002195
2020-05-17 06:17:31 r, 05.91m,0000384508Hz,0000000000c,0000000.000s, 024.4C,00002195
2020-05-17 06:27:30 r, 00.00m,0000493414Hz,0000000000c,0000000.000s, 024.8C,00002195
2020-05-17 06:37:29 r, 00.00m,0000564040Hz,0000000000c,0000000.000s, 025.1C,00002195
2020-05-17 06:47:29 r, 00.00m,0000564019Hz,0000000000c,0000000.000s, 025.1C,00002195
2020-05-17 06:57:29 r, 00.00m,0000564034Hz,0000000000c,0000000.000s, 025.4C,00002195
2020-05-17 07:07:29 r, 00.00m,0000564071Hz,0000000000c,0000000.000s, 025.7C,00002195
2020-05-17 07:17:29 r, 00.00m,0000564075Hz,0000000000c,0000000.000s, 026.1C,00002195
2020-05-17 07:27:29 r, 00.00m,0000564198Hz,0000000000c,0000000.000s, 026.4C,00002195
2020-05-17 07:37:29 r, 00.00m,0000564199Hz,0000000000c,0000000.000s, 026.7C,00002195
2020-05-17 07:47:31 r, 00.00m,0000564262Hz,0000000000c,0000000.000s, 027.7C,00002195
2020-05-17 07:57:29 r, 00.00m,0000564329Hz,0000000000c,0000000.000s, 028.0C,00002195
2020-05-17 08:07:29 r, 00.00m,0000564294Hz,0000000000c,0000000.000s, 028.3C,00002195
2020-05-17 08:17:31 r, 00.00m,0000564446Hz,0000000000c,0000000.000s, 028.6C,00002195
2020-05-17 08:27:29 r, 00.00m,0000564460Hz,0000000000c,0000000.000s, 029.3C,00002195
2020-05-17 08:37:29 r, 00.00m,0000564505Hz,0000000000c,0000000.000s, 029.9C,00002195
2020-05-17 08:47:30 r, 00.00m,0000564501Hz,0000000000c,0000000.000s, 030.6C,00002195
2020-05-17 08:57:29 r, 00.00m,0000564602Hz,0000000000c,0000000.000s, 031.2C,00002195
2020-05-17 09:07:29 r, 00.00m,0000564965Hz,0000000000c,0000000.000s, 033.5C,00002195
2020-05-17 09:17:29 r, 00.00m,0000565365Hz,0000000000c,0000000.000s, 036.7C,00002195
2020-05-17 09:27:29 r, 00.00m,0000565549Hz,0000000000c,0000000.000s, 039.6C,00002195
2020-05-17 09:37:30 r, 00.00m,0000565681Hz,0000000000c,0000000.000s, 041.5C,00002195
2020-05-17 09:47:29 r, 00.00m,0000565811Hz,0000000000c,0000000.000s, 042.8C,00002195
2020-05-17 09:57:32 r, 00.00m,0000565850Hz,0000000000c,0000000.000s, 044.1C,00002195
2020-05-17 10:07:29 r, 00.00m,0000565989Hz,0000000000c,0000000.000s, 045.7C,00002195
2020-05-17 10:17:29 r, 00.00m,0000566015Hz,0000000000c,0000000.000s, 046.4C,00002195
2020-05-17 10:27:30 r, 00.00m,0000566087Hz,0000000000c,0000000.000s, 047.7C,00002195
2020-05-17 10:37:29 r, 00.00m,0000566137Hz,0000000000c,0000000.000s, 048.6C,00002195
2020-05-17 10:47:30 r, 00.00m,0000566117Hz,0000000000c,0000000.000s, 049.3C,00002195
2020-05-17 10:57:29 r, 00.00m,0000566166Hz,0000000000c,0000000.000s, 049.3C,00002195
2020-05-17 11:07:29 r, 00.00m,0000566170Hz,0000000000c,0000000.000s, 049.3C,00002195
2020-05-17 11:17:29 r, 00.00m,0000566159Hz,0000000000c,0000000.000s, 049.6C,00002195
2020-05-17 11:27:32 r, 00.00m,0000566312Hz,0000000000c,0000000.000s, 050.2C,00002195
2020-05-17 11:37:29 r, 00.00m,0000566291Hz,0000000000c,0000000.000s, 050.6C,00002195
2020-05-17 11:47:29 r, 00.00m,0000566283Hz,0000000000c,0000000.000s, 050.9C,00002195
2020-05-17 11:57:32 r, 00.00m,0000566294Hz,0000000000c,0000000.000s, 051.5C,00002195
2020-05-17 12:07:29 r, 00.00m,0000566254Hz,0000000000c,0000000.000s, 051.5C,00002195
2020-05-17 12:17:30 r, 00.00m,0000566240Hz,0000000000c,0000000.000s, 052.2C,00002195
2020-05-17 12:27:29 r, 00.00m,0000566180Hz,0000000000c,0000000.000s, 051.8C,00002195
2020-05-17 12:37:30 r, 00.00m,0000566174Hz,0000000000c,0000000.000s, 050.9C,00002195
2020-05-17 12:47:29 r, 00.00m,0000566306Hz,0000000000c,0000000.000s, 052.5C,00002195
2020-05-17 12:57:29 r, 00.00m,0000566272Hz,0000000000c,0000000.000s, 053.1C,00002195
2020-05-17 13:07:29 r, 00.00m,0000566197Hz,0000000000c,0000000.000s, 053.5C,00002195
2020-05-17 13:17:30 r, 00.00m,0000566317Hz,0000000000c,0000000.000s, 053.8C,00002195
2020-05-17 13:27:29 r, 00.00m,0000566253Hz,0000000000c,0000000.000s, 053.5C,00002195
2020-05-17 13:37:32 r, 00.00m,0000566276Hz,0000000000c,0000000.000s, 054.4C,00002195
2020-05-17 13:47:30 r, 00.00m,0000566323Hz,0000000000c,0000000.000s, 054.7C,00002195
2020-05-17 13:57:29 r, 00.00m,0000566258Hz,0000000000c,0000000.000s, 055.1C,00002195
2020-05-17 14:07:29 r, 00.00m,0000566275Hz,0000000000c,0000000.000s, 054.7C,00002195
2020-05-17 14:17:29 r, 00.00m,0000566240Hz,0000000000c,0000000.000s, 054.4C,00002195
2020-05-17 14:27:30 r, 00.00m,0000566327Hz,0000000000c,0000000.000s, 054.4C,00002195
2020-05-17 14:37:29 r, 00.00m,0000566328Hz,0000000000c,0000000.000s, 054.7C,00002195
2020-05-17 14:47:29 r, 00.00m,0000566280Hz,0000000000c,0000000.000s, 055.1C,00002195
2020-05-17 14:57:29 r, 00.00m,0000566367Hz,0000000000c,0000000.000s, 055.4C,00002195
2020-05-17 15:07:29 r, 00.00m,0000566253Hz,0000000000c,0000000.000s, 055.1C,00002195
2020-05-17 15:17:29 r, 00.00m,0000566220Hz,0000000000c,0000000.000s, 055.1C,00002195
2020-05-17 15:27:30 r, 00.00m,0000566334Hz,0000000000c,0000000.000s, 054.7C,00002195
2020-05-17 15:37:29 r, 00.00m,0000566242Hz,0000000000c,0000000.000s, 054.7C,00002195
2020-05-17 15:47:29 r, 00.00m,0000566274Hz,0000000000c,0000000.000s, 054.4C,00002195
2020-05-17 15:57:29 r, 00.00m,0000566268Hz,0000000000c,0000000.000s, 054.7C,00002195
2020-05-17 16:07:30 r, 00.00m,0000566261Hz,0000000000c,0000000.000s, 054.7C,00002195
2020-05-17 16:17:29 r, 00.00m,0000566213Hz,0000000000c,0000000.000s, 054.4C,00002195
2020-05-17 16:27:29 r, 00.00m,0000566106Hz,0000000000c,0000000.000s, 054.1C,00002195
2020-05-17 16:37:29 r, 00.00m,0000566122Hz,0000000000c,0000000.000s, 053.5C,00002195
2020-05-17 16:47:29 r, 00.00m,0000566149Hz,0000000000c,0000000.000s, 053.1C,00002195
2020-05-17 16:57:30 r, 00.00m,0000566054Hz,0000000000c,0000000.000s, 052.8C,00002195
2020-05-17 17:07:29 r, 00.00m,0000566087Hz,0000000000c,0000000.000s, 052.2C,00002195
2020-05-17 17:17:29 r, 00.00m,0000566015Hz,0000000000c,0000000.000s, 051.8C,00002195
2020-05-17 17:27:30 r, 00.00m,0000566011Hz,0000000000c,0000000.000s, 051.5C,00002195
2020-05-17 17:37:29 r, 00.00m,0000565936Hz,0000000000c,0000000.000s, 051.2C,00002195
2020-05-17 17:47:29 r, 00.00m,0000565924Hz,0000000000c,0000000.000s, 050.6C,00002195
2020-05-17 17:57:32 r, 00.00m,0000565829Hz,0000000000c,0000000.000s, 049.9C,00002195
2020-05-17 18:07:30 r, 00.00m,0000565779Hz,0000000000c,0000000.000s, 049.3C,00002195
2020-05-17 18:17:29 r, 00.00m,0000565816Hz,0000000000c,0000000.000s, 048.6C,00002195
2020-05-17 18:27:29 r, 00.00m,0000565841Hz,0000000000c,0000000.000s, 047.7C,00002195
2020-05-17 18:37:29 r, 00.00m,0000565629Hz,0000000000c,0000000.000s, 046.7C,00002195
2020-05-17 18:47:29 r, 00.00m,0000565514Hz,0000000000c,0000000.000s, 045.7C,00002195
2020-05-17 18:57:29 r, 00.00m,0000565505Hz,0000000000c,0000000.000s, 045.1C,00002195
2020-05-17 19:07:30 r, 00.00m,0000565433Hz,0000000000c,0000000.000s, 044.4C,00002195
2020-05-17 19:17:29 r, 00.00m,0000565370Hz,0000000000c,0000000.000s, 043.8C,00002195
2020-05-17 19:27:29 r, 00.00m,0000565428Hz,0000000000c,0000000.000s, 043.5C,00002195
2020-05-17 19:37:29 r, 00.00m,0000565422Hz,0000000000c,0000000.000s, 043.1C,00002195
2020-05-17 19:47:29 r, 00.00m,0000565315Hz,0000000000c,0000000.000s, 042.2C,00002195
2020-05-17 19:57:30 r, 00.00m,0000565220Hz,0000000000c,0000000.000s, 041.2C,00002195
2020-05-17 20:07:29 r, 00.00m,0000412951Hz,0000000000c,0000000.000s, 040.2C,00002195
2020-05-17 20:17:29 r, 06.08m,0000330642Hz,0000000000c,0000000.000s, 039.0C,00002195
2020-05-17 20:27:29 r, 06.32m,0000262387Hz,0000000000c,0000000.000s, 038.0C,00002195
2020-05-17 20:37:30 r, 06.66m,0000192405Hz,0000000000c,0000000.000s, 037.3C,00002195
2020-05-17 20:47:29 r, 06.93m,0000150897Hz,0000000000c,0000000.000s, 037.0C,00002195
2020-05-17 20:57:30 r, 07.27m,0000110518Hz,0000000000c,0000000.000s, 036.4C,00002195
2020-05-17 21:07:29 r, 07.94m,0000059139Hz,0000000000c,0000000.000s, 036.0C,00002195
2020-05-17 21:17:29 r, 08.85m,0000025638Hz,0000000000c,0000000.000s, 035.4C,00002195
2020-05-17 21:27:29 r, 10.10m,0000008132Hz,0000000000c,0000000.000s, 035.1C,00002195
2020-05-17 21:37:30 r, 11.58m,0000002083Hz,0000000000c,0000000.000s, 034.8C,00002195
2020-05-17 21:47:29 r, 13.19m,0000000473Hz,0000000000c,0000000.000s, 034.1C,00002195
2020-05-17 21:57:29 r, 14.87m,0000000100Hz,0000004613c,0000000.010s, 034.1C,00002195
2020-05-17 22:07:29 r, 16.33m,0000000026Hz,0000017677c,0000000.038s, 033.8C,00002195
2020-05-17 22:17:29 r, 17.22m,0000000011Hz,0000040332c,0000000.088s, 033.5C,00002195
2020-05-17 22:27:30 r, 17.75m,0000000007Hz,0000065349c,0000000.142s, 033.1C,00002195
2020-05-17 22:37:30 r, 17.93m,0000000006Hz,0000077502c,0000000.168s, 033.1C,00002195
2020-05-17 22:47:29 r, 18.21m,0000000005Hz,0000099907c,0000000.217s, 032.8C,00002195
2020-05-17 22:57:29 r, 18.15m,0000000005Hz,0000093893c,0000000.204s, 032.5C,00002195
2020-05-17 23:07:30 r, 18.13m,0000000005Hz,0000092479c,0000000.201s, 032.5C,00002195
2020-05-17 23:17:30 r, 17.81m,0000000007Hz,0000069412c,0000000.151s, 032.2C,00002195
2020-05-17 23:27:30 r, 17.56m,0000000009Hz,0000054624c,0000000.119s, 031.9C,00002195
2020-05-17 23:37:29 r, 17.78m,0000000007Hz,0000067205c,0000000.146s, 031.5C,00002195
2020-05-17 23:47:30 r, 18.26m,0000000004Hz,0000104314c,0000000.226s, 031.5C,00002195
2020-05-17 23:57:30 r, 17.85m,0000000006Hz,0000071849c,0000000.156s, 031.2C,00002195
